Regional Weather Roundup
Issued by NWS Portland, ME

Current Version | Previous Version | Text Only | Print | Product List | Glossary On
Versions: 1 2 3 4 5 6 7 8 9 10 11 12 13 14 15 16 17 18 19 20 21 22 23 24 25 26 27 28 29 30 31 32 33 34 35 36 37 38 39 40 41 42 43 44 45 46 47 48 49 50
000
ASUS41 KGYX 171910
RWRGYX
WEATHER ROUNDUP FOR MAINE AND NEW HAMPSHIRE
NATIONAL WEATHER SERVICE GRAY ME
300 PM EDT TUE OCT 17 2017

MEZ002-005-006-010-012-015-018-020-021-024-026-027-029-172000-
MAINE

CITY           SKY/WX    TMP DP  RH WIND       PRES   REMARKS
PORTLAND       SUNNY     54  34  46 S7G18     30.19F
SANFORD        SUNNY     56  30  37 SW7       30.19F
BAR HARBOR     SUNNY     52  27  38 CALM      30.17F
WISCASSET      SUNNY     55  29  36 VRB6      30.19F
ROCKLAND       SUNNY     53  31  42 VRB3      30.17F
FRYEBURG       SUNNY     57  30  35 VRB5      30.16F
LEWISTONAUBURN SUNNY     53  31  42 SW6       30.17F
AUGUSTA        SUNNY     53  29  39 W7        30.17F
WATERVILLE     SUNNY     53  31  42 SW8       30.13F
BANGOR         MOSUNNY   53  28  38 VRB3      30.16F
GREENVILLE       N/A     50  28  42 VRB6      30.08F
MILLINOCKET    SUNNY     51  29  42 W3        30.12F
HOULTON        SUNNY     49  29  46 SW8       30.09F
PRESQUE ISLE   SUNNY     49  30  48 W7        30.08F
FRENCHVILLE    MOSUNNY   46  27  47 W9        30.04F
CARIBOU        MOSUNNY   49  29  46 SW8       30.06F
$$

NHZ002-005-008-009-011-012-014-172000-
NEW HAMPSHIRE

CITY           SKY/WX    TMP DP  RH WIND       PRES   REMARKS
PORTSMOUTH     SUNNY     56  29  35 S9        30.20F
ROCHESTER      SUNNY     56  28  34 VRB3      30.19F
NASHUA         SUNNY     56  30  37 W6        30.22F
MANCHESTER     MOSUNNY   56  28  34 SW7       30.20F
CONCORD        SUNNY     56  30  37 S7        30.19F
LACONIA        SUNNY     56  30  37 VRB7      30.18F
PLYMOUTH       FAIR      56  27  32 NW6       30.17S
BERLIN         SUNNY     53  28  38 VRB3      30.13F
WHITEFIELD     SUNNY     52  28  39 S5        30.15F
JAFFREY        SUNNY     54  27  35 VRB3      30.20F
KEENE          SUNNY     57  28  33 VRB6      30.21F
LEBANON        SUNNY     58  27  30 S8        30.16F
MT WASHINGTON  MOSUNNY   27  12  54 W21         N/A  WCI  13
$$

VTZ005-007-008-172000-
VERMONT

CITY           SKY/WX    TMP DP  RH WIND       PRES   REMARKS
ST JOHNSBURY     N/A     53  31  42 MISG      30.13F
MONTPELIER     SUNNY     54  27  35 VRB7      30.17F
BURLINGTON     MOSUNNY   56  29  35 S14G21    30.13F
$$

MAZ007-012-024-CTZ003-RIZ002-NYZ038-NYZ072-172000-
SOUTHERN NEW ENGLAND AND NY

CITY           SKY/WX    TMP DP  RH WIND       PRES   REMARKS
BOSTON         SUNNY     55  30  38 S6        30.23F
WORCESTER      SUNNY     53  24  32 W7        30.22F
NANTUCKET      SUNNY     53  36  52 N9        30.25S
PROVIDENCE     MOSUNNY   59  31  34 VRB7      30.25F
HARTFORD       SUNNY     57  28  33 S5        30.24F
ALBANY         MOSUNNY   55  28  35 CALM      30.22F
NEW YORK CITY  SUNNY     59  31  34 VRB5      30.27F
$$

ANZ081-ANZ082-ANZ150-NHZ014-MEZ023>029-172000-
COASTAL MARINE OBSERVATIONS

STATION/POSITION TIME  TEMP    WIND        PRES    WAVE
                       AIR SEA DIR/SP/G            HT/PER
                 (UTC) (F)     (DEG/KT/KT) (MB)    (FT/S)
MOUNT DESERT ROC 1900   47     230/ 10/ 12 1022.3F
MATINICUS ROCK   1800   47     250/ 10/ 11 1022.3F
ISLE OF SHOALS   1800   50     210/ 10/ 12 1023.6F
JEFFREYS LEDGE   1836      60                N/A     3/ 7
CASHES LEDGE BUO 1750   51 56              1023.5    3/ 6
GEORGES BANK BUO 1750   51 59              1020.7    8/ 8
$$

.............KEY..............
   WCI - WIND CHILL
   TC  - TEMPERATURE IN CELSIUS
   VSB - VISIBILITY IN MILES
   HX  - HEAT INDEX
   FAIR- INDICATES FEW OR NO CLOUDS BELOW 12,000 FT, WITH NO
         SIGNIFICANT WEATHER AND/OR OBSTRUCTIONS TO VISIBILITY.






USA.gov is the U.S. government's official web portal to all federal, state and local government web resources and services.